[[{"header":{"parameterUnit":"m.s-1","parameterCategory":1,"la1":30.2991,"la2":30.254,"lo1":-89.0895,"lo2":-89.0444,"dy":0.0017,"dx":0.0017,"nx":28,"ny":28,"refTime":"2024-02-27T09:00:00:Z","depth":0,"parameterNumber":2,"parameterNumberName":"U-component_of_WINDS"},"data":[0,0,0,0,0,0,0,0,0,0,0,0,0,0,0,0,0,0,0,0,0,0,0,0,0,0,0,0,0,0,0,0,0,0,0,0,0,0,0,0,0,0,0,0,0,0,0,0,0,0,0,0,0,0,0,0,0,0,0.7725,0.7725,0,0.7642,0.7641,0.764,0.7597,0.7597,0.7597,0.7597,0.7513,0.7511,0.7509,0,0,0,0,0,0,0,0,0,0,0,0,0,0.7848,0.7846,0.7726,0.7724,0.7723,0.7642,0.7641,0.764,0.7597,0.7597,0.7597,0.7597,0.7514,0.7511,0.7508,0,0,0,0,0,0,0,0,0,0,0,0,0,0.7783,0.7846,0.7726,0.7692,0.7689,0.7642,0.7641,0.764,0.7597,0.7597,0.7597,0.7597,0.7514,0.7511,0.7508,0.7489,0,0,0.7498,0.7496,0,0,0,0,0,0,0,0,0.7787,0.7779,0.7698,0.7695,0.769,0.763,0.7653,0.7589,0.7597,0.7632,0.7597,0.7597,0.7552,0.7546,0.753,0.7485,0.7481,0.7498,0.7496,0.7494,0.7493,0,0,0,0,0,0,0,0.7791,0.7782,0.7692,0.7697,0.7692,0.7682,0.7672,0.7641,0.7593,0.7629,0.7626,0.7616,0.755,0.7533,0.7528,0.748,0.7498,0.7495,0.7493,0.7491,0.7414,0.7414,0,0,0,0,0,0,0.7801,0.7786,0.7695,0.769,0.7739,0.768,0.7669,0.7649,0.7594,0.7585,0.7617,0.7615,0.7539,0.7532,0.7525,0.7498,0.7494,0.7491,0.7489,0.7414,0.7414,0.7414,0,0,0,0,0,0,0.7804,0.7794,0.7698,0.7737,0.7724,0.7678,0.7656,0.7648,0.7631,0.7584,0.7576,0.7609,0.7539,0.7529,0.7498,0.7494,0.749,0.7487,0.7414,0.7414,0.7414,0.7445,0,0,0,0,0,0,0.7808,0.7795,0.7787,0.7737,0.7722,0.7673,0.7656,0.7646,0.7626,0.7623,0.7574,0.7566,0.7538,0.7503,0.7494,0.749,0.7484,0.7414,0.7414,0.7414,0.7444,0.7446,0.7447,0,0,0,0,0,0.7812,0.7799,0.7787,0.7776,0.7711,0.7673,0.7664,0.7632,0.7626,0.7617,0.7587,0.7568,0.7496,0.75,0.749,0.7484,0.7414,0.7414,0.7414,0.7443,0.7445,0.7447,0,0,0,0,0,0,0.785,0.7792,0.7778,0.7748,0.7716,0.7666,0.7654,0.7635,0.7604,0.7602,0.7564,0.7553,0.7525,0.7501,0.7507,0.7463,0.7453,0.7451,0.7479,0.7481,0.7482,0.7489,0.7481,0,0,0,0,0,0.7855,0.7829,0.7779,0.7758,0.7742,0.7701,0.7683,0.7661,0.7626,0.7612,0.7579,0.7546,0.7516,0.7497,0.7467,0.744,0.7429,0.7431,0.7433,0.7435,0.7434,0.7417,0.7418,0.7413,0.7413,0.7413,0,0,0.7865,0.783,0.7816,0.7765,0.7737,0.771,0.769,0.7663,0.7642,0.7608,0.7576,0.7551,0.7511,0.7482,0.7467,0.7462,0.7432,0.7435,0.7436,0.7434,0.7417,0.7418,0.7418,0.7413,0.7413,0.7413,0,0,0.7869,0.784,0.7819,0.7792,0.775,0.7722,0.7717,0.767,0.7652,0.7619,0.7592,0.7568,0.7517,0.749,0.7469,0.7463,0.7444,0.7454,0.7463,0.7448,0.7448,0.7448,0.7446,0.7445,0.7453,0.7453,0.7453,0,0.7887,0.7846,0.7811,0.7785,0.7763,0.773,0.7708,0.7683,0.7634,0.7619,0.7614,0.7549,0.752,0.7483,0.7482,0.7466,0.7459,0.7459,0.7451,0.7451,0.745,0.7447,0.7446,0.7454,0.7454,0.7454,0.7454,0,0.7869,0.7841,0.7829,0.7781,0.7758,0.7734,0.7696,0.7677,0.7656,0.763,0.7597,0.7561,0.7522,0.7512,0.7492,0.7473,0.747,0.7458,0.7448,0.7453,0.7449,0.7448,0.7456,0.7456,0.7456,0.7455,0,0,0.7895,0.7828,0.7824,0.7802,0.7753,0.7731,0.7706,0.7668,0.7652,0.7619,0.7596,0.7554,0.7542,0.7519,0.7496,0.7482,0.7479,0.7471,0.747,0.7474,0.7455,0.7464,0.7463,0.7466,0.7466,0.7466,0.7458,0,0.7892,0.7845,0.7813,0.7778,0.7751,0.7719,0.7697,0.7665,0.7639,0.7613,0.7585,0.7555,0.7542,0.7528,0.7513,0.7482,0.7475,0.7483,0.7445,0.7444,0.7456,0.7461,0.7471,0.7466,0.7456,0.7456,0.7456,0,0.7882,0.785,0.7813,0.7766,0.7754,0.7734,0.7697,0.7672,0.7635,0.7617,0.7591,0.7567,0.7539,0.7531,0.7492,0.7498,0.7481,0.7464,0.7463,0.7458,0.745,0.7456,0.7463,0.7462,0.7454,0.7454,0.7454,0,0.7905,0.7851,0.7822,0.7804,0.7749,0.7736,0.7713,0.7676,0.7655,0.7622,0.7608,0.7573,0.7553,0.7527,0.7494,0.7491,0.7458,0.7448,0.7442,0.7443,0.7436,0.7437,0.744,0.7426,0.7426,0.7426,0.7426,0,0.7904,0.7883,0.7831,0.7813,0.7788,0.7751,0.7727,0.7701,0.7668,0.7644,0.7615,0.7593,0.7551,0.7524,0.7499,0.747,0.7461,0.7446,0.744,0.7449,0.745,0.7437,0.7436,0.7426,0.7426,0.7426,0.7426,0,0.7925,0.7889,0.7855,0.7806,0.7793,0.7777,0.7734,0.7716,0.7688,0.7659,0.765,0.7607,0.7574,0.7538,0.7494,0.7476,0.7449,0.7439,0.7461,0.7457,0.7453,0.7454,0.7447,0.7444,0.7433,0.7433,0.7433,0,0.7927,0.7909,0.7858,0.784,0.7817,0.7789,0.7767,0.773,0.7709,0.7665,0.7651,0.7616,0.7585,0.7534,0.7499,0.7465,0.7454,0.7454,0.7449,0.7458,0.7454,0.7455,0.7453,0.7456,0.7456,0.7457,0.7457,0,0.7934,0.7918,0.7887,0.7851,0.7826,0.7796,0.7764,0.7751,0.7708,0.7686,0.7651,0.7628,0.7582,0.7547,0.7508,0.7484,0.7463,0.7459,0.7456,0.7464,0.7478,0.747,0.7465,0.7459,0.7459,0.7459,0.7459,0.7459,0.7945,0.7928,0.7889,0.7856,0.7829,0.78,0.778,0.775,0.772,0.7679,0.766,0.7625,0.7588,0.7533,0.751,0.7483,0.7476,0.7472,0.7471,0.747,0.7472,0.7482,0.7476,0.7475,0.7475,0.7475,0.7475,0,0.7951,0.7924,0.7894,0.7851,0.7825,0.7808,0.7772,0.7751,0.7721,0.7688,0.7659,0.7619,0.7585,0.7547,0.7511,0.7497,0.7486,0.7488,0.7489,0.7483,0.748,0.7486,0.7497,0.7497,0.7497,0.7497,0.7497,0.7497,0.7951,0.792,0.7899,0.7854,0.7828,0.7794,0.7775,0.7748,0.7721,0.7678,0.7649,0.7625,0.759,0.755,0.7518,0.7508,0.7496,0.7501,0.7488,0.7486,0.7484,0.7482,0.7488,0.7499,0.7499,0.7493,0.7493,0.7493]},{"header":{"parameterUnit":"m.s-1","parameterCategory":1,"la1":30.2991,"la2":30.254,"lo1":-89.0895,"lo2":-89.0444,"dy":0.0017,"dx":0.0017,"nx":28,"ny":28,"refTime":"2024-02-27T09:00:00:Z","depth":0,"parameterNumber":3,"parameterNumberName":"V-component_of_WINDS"},"data":[0,0,0,0,0,0,0,0,0,0,0,0,0,0,0,0,0,0,0,0,0,0,0,0,0,0,0,0,0,0,0,0,0,0,0,0,0,0,0,0,0,0,0,0,0,0,0,0,0,0,0,0,0,0,0,0,0,0,4.9542,4.9543,0,4.9588,4.9589,4.959,4.9581,4.958,4.9579,4.9579,4.9628,4.963,4.9632,0,0,0,0,0,0,0,0,0,0,0,0,0,4.9448,4.945,4.9542,4.9543,4.9543,4.9588,4.9589,4.959,4.9581,4.958,4.9579,4.9578,4.9627,4.963,4.9632,0,0,0,0,0,0,0,0,0,0,0,0,0,4.9491,4.9451,4.9542,4.9544,4.9545,4.9588,4.9589,4.959,4.9581,4.958,4.9579,4.9578,4.9627,4.963,4.9633,4.9677,0,0,4.9642,4.9644,0,0,0,0,0,0,0,0,4.9489,4.9495,4.9543,4.9544,4.9545,4.9578,4.9574,4.9619,4.9582,4.9568,4.9579,4.9577,4.9612,4.9617,4.9628,4.9679,4.9681,4.9643,4.9644,4.9646,4.9647,0,0,0,0,0,0,0,4.9486,4.9493,4.956,4.9544,4.9545,4.9544,4.9549,4.9583,4.9597,4.9569,4.9568,4.9574,4.9613,4.9625,4.9629,4.9682,4.9642,4.9645,4.9647,4.9648,4.9774,4.9776,0,0,0,0,0,0,4.9482,4.949,4.9559,4.9562,4.9513,4.9547,4.9552,4.9568,4.9596,4.9599,4.9575,4.9573,4.962,4.9626,4.9631,4.9686,4.9646,4.9649,4.9651,4.9773,4.9775,4.9776,0,0,0,0,0,0,4.948,4.9488,4.9557,4.9526,4.9535,4.9549,4.9568,4.957,4.9582,4.9601,4.9603,4.9585,4.962,4.9627,4.9666,4.9688,4.965,4.9653,4.9771,4.9773,4.9775,4.9796,0,0,0,0,0,0,4.9477,4.9487,4.9504,4.9526,4.9536,4.9591,4.9569,4.9572,4.9588,4.9586,4.9611,4.9614,4.9619,4.9661,4.9669,4.9691,4.9655,4.9769,4.9772,4.9775,4.9794,4.9799,4.9803,0,0,0,0,0,4.9474,4.9508,4.9505,4.9513,4.9557,4.9592,4.9598,4.9603,4.9589,4.9607,4.9618,4.9613,4.9684,4.9665,4.9674,4.9698,4.9768,4.9771,4.9775,4.9791,4.9798,4.9803,0,0,0,0,0,0,4.9488,4.9511,4.9508,4.955,4.9569,4.959,4.9612,4.9609,4.9633,4.963,4.9636,4.9642,4.9682,4.9694,4.9673,4.9743,4.9724,4.9729,4.9734,4.974,4.9745,4.9742,4.9658,0,0,0,0,0,4.9496,4.9521,4.954,4.9575,4.9585,4.9597,4.9612,4.9615,4.9635,4.9643,4.9658,4.9679,4.9706,4.9723,4.9749,4.9795,4.9801,4.9816,4.982,4.9824,4.9829,4.9856,4.9863,4.9787,4.9787,4.9787,0,0,4.9512,4.9528,4.9544,4.9579,4.9594,4.9621,4.9604,4.9633,4.9654,4.9648,4.9686,4.9698,4.9721,4.9765,4.9784,4.9776,4.9851,4.9828,4.9831,4.9834,4.986,4.9867,4.9874,4.9789,4.9789,4.9789,0,0,4.9557,4.9571,4.9602,4.9618,4.9641,4.9649,4.9656,4.9679,4.9686,4.9724,4.9721,4.9746,4.9792,4.981,4.9825,4.9877,4.9874,4.9885,4.9911,4.9937,4.9943,4.9949,4.9969,4.9976,4.989,4.989,4.989,0,4.9575,4.9615,4.9619,4.9649,4.9666,4.9661,4.9694,4.9709,4.9739,4.9751,4.974,4.9799,4.9815,4.9863,4.9876,4.9887,4.9898,4.9883,4.9942,4.9947,4.9952,4.9972,4.9979,4.9891,4.9891,4.9891,4.9891,0,4.9637,4.9665,4.9688,4.9718,4.9736,4.9768,4.9777,4.9796,4.9797,4.9806,4.9846,4.9865,4.9895,4.9906,4.9907,4.9955,4.9949,4.994,4.9922,4.9961,4.998,4.9987,4.9893,4.9893,4.9892,4.9892,0,0,4.9692,4.9724,4.9732,4.9746,4.9772,4.9794,4.9826,4.9855,4.9872,4.9893,4.9921,4.9961,4.9953,4.997,4.9973,4.9996,5.0038,4.9984,4.9985,4.9995,5.0094,5.0102,5.0111,5.0036,5.0037,5.0038,5.0093,0,4.974,4.9796,4.9801,4.9851,4.9878,4.9874,4.9902,4.9921,4.9931,4.9956,4.9967,4.9996,4.9982,4.9993,5.0015,5.0028,5.0059,5.0024,5.0063,5.0065,5.0059,5.012,5.0128,5.0179,5.01,5.0101,5.0102,0,4.9804,4.9827,4.988,4.9903,4.9915,4.994,4.9968,4.9991,5.0014,5.0019,5.0039,5.0039,5.0073,5.0053,5.0101,5.0078,5.0094,5.0103,5.0105,5.011,5.0087,5.0128,5.0195,5.0203,5.0113,5.0113,5.0112,0,4.9841,4.9885,4.9923,4.9935,4.9962,4.998,4.9993,5.0014,5.0031,5.0056,5.0068,5.0096,5.0112,5.0135,5.0144,5.0127,5.0192,5.0172,5.02,5.0199,5.0214,5.0213,5.0286,5.0222,5.0222,5.0222,5.0222,0,4.9895,4.9928,4.994,4.9964,5.0001,5.0007,5.0044,5.0055,5.0074,5.0101,5.0099,5.0125,5.0134,5.0161,5.0168,5.0208,5.0215,5.0222,5.0223,5.0223,5.0222,5.0234,5.0232,5.0224,5.0224,5.0223,5.0223,0,4.9943,4.9952,4.9994,5.0016,5.0022,5.0049,5.0069,5.0092,5.0102,5.0136,5.0144,5.0159,5.0191,5.0202,5.0241,5.0245,5.0293,5.0291,5.0285,5.0286,5.0313,5.0311,5.0398,5.041,5.0337,5.0337,5.0338,0,4.9978,5.0003,5.0028,5.0046,5.0059,5.0087,5.0105,5.0111,5.0131,5.0159,5.0179,5.0211,5.0236,5.0288,5.0304,5.0334,5.0334,5.0362,5.0338,5.0337,5.0336,5.0335,5.0339,5.0367,5.0367,5.0368,5.0369,0,5.0039,5.0042,5.0068,5.0096,5.0117,5.014,5.0161,5.0176,5.0186,5.0208,5.024,5.026,5.03,5.0333,5.0364,5.0378,5.0376,5.0376,5.0384,5.0384,5.0381,5.0385,5.0299,5.0374,5.0373,5.0373,5.0373,5.0373,5.0082,5.0105,5.0127,5.0156,5.0173,5.0193,5.0217,5.0229,5.0256,5.0289,5.0291,5.0327,5.035,5.0392,5.0407,5.0436,5.0429,5.044,5.0443,5.0446,5.0449,5.0375,5.0442,5.0442,5.0442,5.0441,5.0441,0,5.0145,5.0158,5.0185,5.0216,5.0239,5.0234,5.0258,5.0278,5.0309,5.0331,5.0356,5.0394,5.0426,5.0444,5.0476,5.0496,5.0496,5.0504,5.0503,5.0507,5.0454,5.0444,5.0504,5.0504,5.0504,5.0504,5.0504,5.0504,5.018,5.0219,5.0225,5.0273,5.0287,5.0322,5.0336,5.0356,5.0373,5.0415,5.0441,5.0452,5.0473,5.0507,5.0536,5.0541,5.0553,5.0563,5.0567,5.0517,5.0511,5.0505,5.0496,5.0565,5.0565,5.0618,5.0619,5.0619]}]]